Flag for Moldova Weather past 2 weeks in Tiraspol, Moldova

61 °F

Passing clouds.

Feels Like: 61 °F
Forecast: 35 / 53 °F
Wind: 16 mph from Northeast

Location: Chisinau International Airport

Current Time: Oct 7, 2015 at 4:08:27 PM

Latest Report: Oct 7, 2015 at 3:30 PM

Visibility: N/A

Pressure: 30.01 "Hg

Humidity: 34%

Dew point: 32 °F

Location of TiraspolLocation

Historic Weather in Tiraspol — Graph


Tiraspol temperature yesterday

Maximum temperature yesterday: 72 °F (at 2:00 PM)
Minimum temperature yesterday: 50 °F (at 7:30 AM)
Average temperature yesterday: 61 °F

Past Weeks' High & Low Weather Summary

High86 °F (Sep 23, 3:00 PM)94% (Sep 24, 10:30 PM)30.42 "Hg (Sep 24, 10:30 PM)
Low37 °F (Oct 3, 5:30 AM)18% (Oct 3, 4:30 PM)29.80 "Hg (Oct 6, 2:00 PM)
Average63 °F62%30.08 "Hg
* Reported Sep 22 3:00 PM — Oct 7 3:00 PM, Tiraspol, Weather by CustomWeather, © 2015

Note: Actual official high and low records may vary slightly from our data, if they occured in-between our weather recording intervals... More about our weather records


Tiraspol weather history for previous 24 hours

Time TempWeatherWind HumidityBarometerVisibility
3:00 PM
Wed, Oct 7
59 °FPassing clouds.16 mph39%29.98 "HgN/A
2:30 PM59 °FPassing clouds.17 mph39%29.98 "HgN/A
2:00 PM59 °FPassing clouds.18 mph45%29.95 "HgN/A
1:30 PM59 °FPassing clouds.18 mph45%29.95 "HgN/A
1:00 PM59 °FPassing clouds.20 mph48%29.95 "HgN/A
12:30 PM59 °FScattered clouds.18 mph51%29.95 "HgN/A
12:00 PM59 °FScattered clouds.20 mph51%29.95 "HgN/A
11:30 AM57 °FScattered clouds.15 mph59%29.95 "HgN/A
11:00 AM57 °FBroken clouds.16 mph63%29.92 "HgN/A
10:30 AM57 °FPartly sunny.15 mph63%29.92 "HgN/A
10:00 AM57 °FPartly sunny.15 mph72%29.92 "HgN/A
9:30 AM57 °FPartly sunny.13 mph72%29.89 "HgN/A
9:00 AM59 °FBroken clouds.14 mph72%29.89 "Hg6 mi
8:30 AM59 °FMostly cloudy.12 mph77%29.86 "Hg4 mi
8:00 AM57 °FFog.8 mph82%29.86 "Hg3 mi
7:30 AM57 °FFog.7 mph82%29.86 "Hg3 mi
7:00 AM57 °FFog.8 mph82%29.83 "Hg3 mi
6:30 AM57 °FFog.7 mph82%29.83 "Hg3 mi
6:00 AM57 °FPassing clouds.10 mph82%29.83 "Hg4 mi
5:30 AM55 °FPassing clouds.12 mph82%29.83 "HgN/A
5:00 AM55 °FPassing clouds.9 mph82%29.83 "HgN/A
4:30 AM55 °FClear.8 mph82%29.83 "Hg10 mi
4:00 AM55 °FClear.7 mph82%29.83 "Hg10 mi
3:30 AM55 °FClear.8 mph82%29.80 "Hg10 mi
3:00 AM55 °FClear.9 mph88%29.80 "Hg10 mi
2:30 AM55 °FPassing clouds.7 mph88%29.80 "HgN/A
2:00 AM57 °FPassing clouds.7 mph82%29.80 "HgN/A
1:30 AM57 °FPassing clouds.6 mph82%29.80 "HgN/A
12:30 AM57 °FPassing clouds.7 mph82%29.80 "HgN/A
12:00 AM57 °FPassing clouds.8 mph88%29.80 "HgN/A
11:30 PM
Tue, Oct 6
57 °FPassing clouds.7 mph82%29.80 "HgN/A
11:00 PM59 °FPassing clouds.6 mph82%29.80 "HgN/A
10:30 PM59 °FPassing clouds.6 mph77%29.80 "HgN/A
10:00 PM59 °FPassing clouds.7 mph77%29.80 "HgN/A
9:30 PM59 °FPassing clouds.7 mph82%29.80 "HgN/A
9:00 PM61 °FPassing clouds.6 mph77%29.80 "HgN/A
8:30 PM63 °FPassing clouds.3 mph68%29.80 "HgN/A
8:00 PM63 °FPassing clouds.2 mph73%29.80 "HgN/A
7:30 PM64 °FScattered clouds.No wind64%29.80 "HgN/A
7:00 PM64 °FPassing clouds.3 mph64%29.80 "Hg4 mi
6:30 PM66 °FScattered clouds.5 mph64%29.80 "HgN/A
6:00 PM68 °FScattered clouds.8 mph60%29.80 "HgN/A
5:30 PM68 °FThundershowers. Partly sunny.6 mph60%29.80 "HgN/A
5:00 PM70 °FThundershowers. Scattered clouds.5 mph57%29.80 "HgN/A
4:30 PM72 °FThundershowers. Scattered clouds.5 mph53%29.80 "HgN/A
4:00 PM70 °FScattered clouds.3 mph60%29.80 "HgN/A
Weather by CustomWeather, © 2015

See weather overviewHow to use our weather pages